Terminal Aerodrome Forecast
Issued by NWS

Home | Current Version | Previous Version | Text Only | Print | Product List | Glossary On
Versions: 1 2 3 4 5 6 7 8 9 10 11 12 13
000
FTUS42 KMLB 020538
TAFSUA
TAF
KSUA 020538Z 0206/0306 21003KT P6SM SCT120 OVC250
     FM021600 15006KT P6SM VCTS SCT030CB OVC050
      TEMPO 0217/0220 3SM TSRA BKN020CB OVC040
     FM022100 20005KT P6SM VCSH SCT025 OVC050
     FM030000 00000KT P6SM SCT025 OVC050=

USA.gov is the U.S. government's official web portal to all federal, state and local government web resources and services.